YZ-1 R/B, 43109

Orbit data source: Space-Track

YZ-1 R/B, 43109 is space debris originally from a launch on Thu, 11 Jan 2018 UTC launched from the Xichang Space Center, China (XSC). Debris objects in space refer to the collection of defunct objects orbiting the Earth. Examples of debris include non-operational satellites, rocket bodies, and fragments generated from explosions, collisions, or faulty payload assembly.

Loading next visibility...
Identifier
43109, 2018-003C
Orbit
Active
Country
Flag of CNCN / PRC
Related business
Manufacturer
CALT
Mission
Spacecraft
Bus & Motor
YZ-1, Unknown motor
Mass
~2,075 kg wet, ~2,075 kg dry
Launch date (UTC)
2018-01-11 (8 years ago)
Launch vehicle
Unknown
Launch site
Xichang Space Center, China (XSC)
Object type
Payload
Rocket body
Debris
Shape & HBR
Double Cone, 2.0 m
Radar Cross Section
5.890 m², Large (>1 m²)

Expand to show TLE details & history
Last TLE update: 3 days ago

TLE from 3 days ago
0 YZ-1 R/B
1 43109U 18003C   26170.46943837 -.00000086  00000-0  00000-0 0  9994
2 43109  54.6196 312.1850 0125594  43.1795 317.7824  1.78158359 54902
Epoch: 2026-06-19T11:15Z
TLE epoch observation values (Epoch: 2026-06-19T11:15:59.475Z)
Latitude
0.00004°
Longitude
-124.53042°
Altitude
22,100.178 km
Speed
3.758 km/s
True Right ascension
20h 48m 39s
True Declination
0° 00' 00"
Sunlit
Object was in daylight at epoch
Visualization orbit readout
Latitude
Unknown
Longitude
Unknown
Altitude
Unknown
Speed
Unknown
Apparent Right ascension
Unknown
Apparent Declination
Unknown
Sunlit
N/A
Visualization observer readout
Local Sidereal Time
21:46:22
Azimuth
Unknown
Elevation
Unknown
Doppler factor
Unknown
Orbital elements
Apogee altitude
22,725.809 km
Perigee altitude
22,003.821 km
Semi-major axis
28,742.952 km
Eccentricity
0.01256
Inclination
54.6196°
RAAN
312.185°
Arg. of periapsis
43.1795°
True anomaly
316.80401°
Mean anomaly
317.7824°
Eccentric anomaly
317.29434°
Mean motion
0.4454 °/min
Orbital period
808.27 mins
BSTAR
0
Loading maneuver chart data...
Computing Atmospheric mass density...
Loading historical data...
Loading historical data...
Loading historical data...
Loading historical data...
Loading historical data...
Loading historical data...
Loading historical data...
Other satellites on launch #3 in the year 2018 (2018-01-11 UTC)

Documentation

Showing up to 5 results
|